GW4457 Weather Reports


Display with metric or nautical units.
time (UTC)temp
F
wind
direction
speed
MPH
gust
MPH
rain 1hr
in
rain 24hr
in
rain mn
in
humidity
%
barometer
mb
20260905142455 89 126 17.0 24.0 0.00 0.00 0.00 64 1019.8
20260905141951 89 93 11.0 19.0 0.00 0.00 0.00 64 1020.0
20260905141445 89 207 9.0 18.0 0.00 0.00 0.00 66 1019.6
20260905140942 89 101 15.0 21.0 0.00 0.00 0.00 64 1019.9
20260905140437 89 83 11.0 18.0 0.00 0.00 0.00 65 1019.8
20260905135936 90 125 13.0 19.0 0.00 0.00 0.00 63 1019.9
20260905135431 91 86 13.0 24.0 0.00 0.00 0.00 62 1019.7
20260905134927 90 95 13.0 16.0 0.00 0.00 0.00 62 1019.9
20260905134426 90 89 14.0 16.0 0.00 0.00 0.00 60 1019.9
20260905133920 90 97 9.0 15.0 0.00 0.00 0.00 65 1019.7
20260905133420 89 145 12.0 15.0 0.00 0.00 0.00 63 1019.8
20260905132920 90 89 11.0 14.0 0.00 0.00 0.00 65 1019.7
20260905132415 89 97 9.0 16.0 0.00 0.00 0.00 64 1019.6
20260905131910 89 137 13.0 17.0 0.00 0.00 0.00 66 1019.7
20260905131406 89 91 15.0 17.0 0.00 0.00 0.00 65 1019.7
20260905130901 89 143 11.0 14.0 0.00 0.00 0.00 66 1019.8
20260905130400 89 92 11.0 15.0 0.00 0.00 0.00 64 1019.5
20260905125854 89 112 6.0 9.0 0.00 0.00 0.00 67 1019.4
20260905125349 88 82 13.0 15.0 0.00 0.00 0.00 67 1019.5
20260905124845 88 144 11.0 14.0 0.00 0.00 0.00 67 1019.6
20260905124342 87 92 13.0 16.0 0.00 0.00 0.00 67 1019.5
20260905123841 87 106 11.0 15.0 0.00 0.00 0.00 69 1019.6
20260905123338 87 98 10.0 14.0 0.00 0.00 0.00 69 1019.7
20260905122838 87 121 8.0 14.0 0.00 0.00 0.00 69 1019.8
20260905122337 87 104 11.0 14.0 0.00 0.00 0.00 68 1019.7
20260905121833 87 101 11.0 14.0 0.00 0.00 0.00 68 1019.8
20260905121330 86 134 8.0 10.0 0.00 0.00 0.00 69 1019.8
20260905120828 85 81 10.0 15.0 0.00 0.00 0.00 72 1019.8
20260905120323 85 79 10.0 14.0 0.00 0.00 0.00 72 1019.5
20260905115818 85 69 8.0 13.0 0.00 0.00 0.00 72 1019.5
20260905115317 84 76 9.0 13.0 0.00 0.00 0.00 72 1019.5
20260905114817 84 4 6.0 10.0 0.00 0.00 0.00 73 1019.3
20260905114316 84 143 5.0 9.0 0.00 0.00 0.00 75 1019.3
20260905113816 84 78 5.0 9.0 0.00 0.00 0.00 76 1019.1
20260905113311 83 79 3.0 8.0 0.00 0.00 0.00 77 1019.1
20260905112807 82 18 5.0 11.0 0.00 0.00 0.00 78 1019.2
20260905112301 82 90 4.0 9.0 0.00 0.00 0.00 79 1019.2
20260905111756 82 86 6.0 9.0 0.00 0.00 0.00 80 1019.0
20260905111250 82 127 5.0 11.0 0.00 0.00 0.00 81 1018.9
20260905110750 82 87 8.0 16.0 0.00 0.00 0.00 80 1018.9
20260905110244 81 95 6.0 11.0 0.00 0.00 0.00 81 1018.9
20260905105740 81 80 7.0 9.0 0.00 0.00 0.00 81 1018.8
20260905105239 80 70 7.0 17.0 0.00 0.00 0.00 81 1018.9
20260905104733 80 69 4.0 11.0 0.00 0.00 0.00 81 1018.7
20260905104230 80 85 4.0 10.0 0.00 0.00 0.00 81 1018.6
20260905103724 80 73 6.0 13.0 0.00 0.00 0.00 81 1018.6
20260905103220 80 118 6.0 14.0 0.00 0.00 0.00 81 1018.8
20260905102716 79 100 10.0 11.0 0.00 0.00 0.00 81 1018.6
20260905102212 79 78 6.0 11.0 0.00 0.00 0.00 81 1018.5
20260905101711 79 91 8.0 13.0 0.00 0.00 0.00 81 1018.4
20260905101209 79 89 7.0 10.0 0.00 0.00 0.00 82 1018.5
20260905100705 79 95 8.0 11.0 0.00 0.00 0.00 82 1018.2
20260905100201 80 63 6.0 9.0 0.00 0.00 0.00 82 1018.4
20260905095700 79 60 7.0 13.0 0.00 0.00 0.00 82 1018.3
20260905095154 79 121 4.0 15.0 0.00 0.00 0.00 83 1018.5
20260905094650 79 111 8.0 13.0 0.00 0.00 0.00 82 1018.2
20260905094149 79 85 12.0 14.0 0.00 0.00 0.00 82 1018.2
20260905093644 79 96 10.0 13.0 0.00 0.00 0.00 82 1018.1
20260905093140 79 67 8.0 13.0 0.00 0.00 0.00 83 1018.1
20260905092640 79 90 9.0 13.0 0.00 0.00 0.00 83 1017.9
20260905092136 79 98 9.0 13.0 0.00 0.00 0.00 84 1018.1
20260905091635 79 82 8.0 14.0 0.00 0.00 0.00 84 1018.1
20260905091135 79 71 8.0 14.0 0.00 0.00 0.00 84 1018.1
20260905090630 79 220 6.0 9.0 0.00 0.00 0.00 84 1018.2
20260905090125 79 64 5.0 10.0 0.00 0.00 0.00 83 1018.3
20260905085624 79 94 8.0 11.0 0.00 0.00 0.00 83 1018.3
20260905085120 79 51 10.0 13.0 0.00 0.00 0.00 83 1018.1
20260905084619 79 92 7.0 10.0 0.00 0.00 0.00 83 1017.8
20260905084115 79 87 9.0 10.0 0.00 0.00 0.00 84 1017.7
20260905083614 79 102 10.0 11.0 0.00 0.00 0.00 84 1017.9
20260905083111 79 71 6.0 9.0 0.00 0.00 0.00 85 1018.2
20260905082606 78 89 5.0 9.0 0.00 0.00 0.00 86 1018.1
20260905082102 78 79 5.0 9.0 0.00 0.00 0.00 87 1018.3
20260905081601 78 60 5.0 9.0 0.00 0.00 0.00 87 1018.1
20260905081057 78 76 7.0 9.0 0.00 0.00 0.00 88 1018.4
20260905080556 78 73 6.0 10.0 0.00 0.00 0.00 88 1018.2
20260905080052 78 82 7.0 10.0 0.00 0.00 0.00 88 1017.9
20260905075551 78 75 6.0 10.0 0.00 0.00 0.00 88 1018.3
20260905075050 78 81 4.0 9.0 0.00 0.00 0.00 88 1018.2
20260905074549 79 78 6.0 7.0 0.00 0.00 0.00 88 1018.2
20260905074046 79 90 7.0 9.0 0.00 0.00 0.00 88 1018.2
20260905073541 79 75 7.0 10.0 0.00 0.00 0.00 88 1018.2
20260905073037 79 54 4.0 9.0 0.00 0.00 0.00 88 1018.5
20260905072536 79 90 4.0 8.0 0.00 0.00 0.00 88 1018.1
20260905072031 79 96 8.0 10.0 0.00 0.00 0.00 88 1018.3
20260905071528 79 85 6.0 7.0 0.00 0.00 0.00 88 1018.4
20260905071028 79 77 5.0 6.0 0.00 0.00 0.00 88 1018.4
20260905070523 79 93 7.0 9.0 0.00 0.00 0.00 88 1018.2
20260905070019 79 86 6.0 8.0 0.00 0.00 0.00 88 1018.4
20260905065517 79 114 2.0 8.0 0.00 0.00 0.00 88 1018.4
20260905065012 79 116 7.0 8.0 0.00 0.00 0.00 88 1018.5
20260905064507 79 92 6.0 10.0 0.00 0.00 0.00 88 1018.6
20260905064003 79 55 6.0 8.0 0.00 0.00 0.00 88 1018.6
20260905063502 79 77 6.0 8.0 0.00 0.00 0.00 88 1018.7
20260905062959 79 57 4.0 9.0 0.00 0.00 0.00 88 1018.8
20260905062458 79 150 4.0 8.0 0.00 0.00 0.00 88 1019.0
20260905061953 79 105 6.0 9.0 0.00 0.00 0.00 88 1018.9
20260905061448 80 111 6.0 9.0 0.00 0.00 0.00 87 1018.8
20260905060947 80 119 4.0 11.0 0.00 0.00 0.00 87 1019.2
20260905060443 80 90 6.0 8.0 0.00 0.00 0.00 87 1019.2
20260905055943 80 142 3.0 8.0 0.00 0.00 0.00 87 1019.0
20260905055443 80 163 2.0 7.0 0.00 0.00 0.00 87 1019.1
20260905054942 80 127 6.0 8.0 0.00 0.00 0.00 87 1019.3
20260905054438 80 79 5.0 9.0 0.00 0.00 0.00 87 1019.3
20260905053939 80 77 4.0 8.0 0.00 0.00 0.00 87 1019.4
20260905053433 80 75 6.0 9.0 0.00 0.00 0.00 87 1019.3
20260905052929 80 80 4.0 6.0 0.00 0.00 0.00 87 1019.6
20260905052428 80 74 6.0 8.0 0.00 0.00 0.00 87 1019.4
20260905051928 80 85 4.0 6.0 0.00 0.00 0.00 86 1019.7
20260905051423 80 84 4.0 7.0 0.00 0.00 0.00 86 1019.5
20260905050921 80 90 5.0 7.0 0.00 0.00 0.00 86 1019.6
20260905050417 80 70 6.0 7.0 0.00 0.00 0.00 86 1019.7
20260905045912 80 15 3.0 8.0 0.00 0.00 0.00 85 1019.6
20260905045408 80 83 7.0 9.0 0.00 0.00 0.00 85 1019.6
20260905044903 80 78 5.0 9.0 0.00 0.00 0.00 84 1019.8
20260905044358 80 182 3.0 9.0 0.00 0.00 0.00 84 1019.9
20260905043856 80 94 3.0 8.0 0.00 0.00 0.00 83 1020.0
20260905043351 80 71 5.0 7.0 0.00 0.00 0.00 83 1019.7
20260905042846 80 70 2.0 7.0 0.00 0.00 0.00 83 1020.1
20260905042346 80 67 5.0 7.0 0.00 0.00 0.00 82 1019.8
20260905041841 80 60 7.0 8.0 0.00 0.00 0.00 83 1019.9
20260905041338 80 67 4.0 8.0 0.00 0.00 0.00 83 1019.9
20260905040837 80 79 3.0 8.0 0.00 0.00 0.00 83 1020.1
20260905040337 80 65 4.0 7.0 0.00 0.00 0.00 83 1020.2
20260905035836 80 48 3.0 4.0 0.00 0.00 0.00 84 1020.2
20260905035332 80 57 3.0 6.0 0.00 0.00 0.00 84 1020.1
20260905034828 80 52 4.0 6.0 0.00 0.00 0.00 85 1020.2
20260905034323 80 64 4.0 6.0 0.00 0.00 0.00 85 1020.2
20260905033822 80 32 2.0 6.0 0.00 0.00 0.00 86 1020.4
20260905033317 80 317 2.0 4.0 0.00 0.00 0.00 86 1020.2
20260905032817 80 83 3.0 4.0 0.00 0.00 0.00 85 1020.0
20260905032312 80 45 2.0 4.0 0.00 0.00 0.00 85 1020.2
20260905031808 80 63 2.0 3.0 0.00 0.00 0.00 85 1020.1
20260905031303 80 63 2.0 4.0 0.00 0.00 0.00 85 1020.0
20260905030759 80 48 2.0 3.0 0.00 0.00 0.00 85 1020.2
20260905030254 80 47 2.0 4.0 0.00 0.00 0.00 85 1020.1
20260905025753 80 18 3.0 4.0 0.00 0.00 0.00 85 1020.0
20260905025249 80 58 2.0 3.0 0.00 0.00 0.00 85 1020.2
20260905024745 80 116 4.0 6.0 0.00 0.00 0.00 85 1020.1
20260905024241 80 14 4.0 6.0 0.00 0.00 0.00 85 1020.4
20260905023741 80 304 3.0 6.0 0.00 0.00 0.00 85 1020.4
20260905023236 80 17 1.0 4.0 0.00 0.00 0.00 85 1020.4
20260905022735 80 106 2.0 6.0 0.00 0.00 0.00 84 1020.4
20260905022231 80 290 2.0 3.0 0.00 0.00 0.00 84 1020.5
20260905021730 80 86 3.0 4.0 0.00 0.00 0.00 84 1020.3
20260905021225 80 86 4.0 4.0 0.00 0.00 0.00 83 1020.3
20260905020720 80 74 4.0 6.0 0.00 0.00 0.00 83 1020.4
20260905020216 80 208 3.0 6.0 0.00 0.00 0.00 83 1020.5
20260905015714 80 85 2.0 6.0 0.00 0.00 0.00 84 1020.6
20260905015215 80 74 2.0 4.0 0.00 0.00 0.00 84 1020.6
20260905014713 80 73 2.0 4.0 0.00 0.00 0.00 83 1020.7
20260905014209 80 86 2.0 3.0 0.00 0.00 0.00 83 1020.5
20260905013705 80 31 2.0 3.0 0.00 0.00 0.00 83 1020.7
20260905013200 80 28 2.0 3.0 0.00 0.00 0.00 83 1020.4
20260905012656 80 20 1.0 2.0 0.00 0.00 0.00 84 1020.5
20260905012152 80 18 1.0 2.0 0.00 0.00 0.00 84 1020.5
20260905011648 80 23 2.0 3.0 0.00 0.00 0.00 84 1020.6
20260905011144 80 317 1.0 2.0 0.00 0.00 0.00 84 1020.5
20260905010638 80 323 1.0 2.0 0.00 0.00 0.00 84 1020.3
20260905010134 80 292 1.0 1.0 0.00 0.00 0.00 84 1020.4
20260905005630 80 316 1.0 2.0 0.00 0.00 0.00 84 1020.4
20260905005125 80 315 2.0 2.0 0.00 0.00 0.00 84 1020.0
20260905004625 80 305 2.0 2.0 0.00 0.00 0.00 84 1020.3
20260905004120 80 328 1.0 2.0 0.00 0.00 0.00 84 1020.1
20260905003616 80 291 0.0 2.0 0.00 0.00 0.00 84 1020.2
20260905003112 80 349 2.0 3.0 0.00 0.00 0.00 85 1020.1
20260905002607 80 318 2.0 2.0 0.00 0.00 0.00 85 1020.1
20260905002102 80 340 2.0 3.0 0.00 0.00 0.00 85 1020.1
20260905001557 80 306 2.0 2.0 0.00 0.00 0.00 85 1020.0
20260905001056 80 276 1.0 3.0 0.00 0.00 0.00 85 1020.2
20260905000551 80 278 0.0 0.0 0.00 0.00 0.00 85 1019.9
20260905000048 80 254 0.0 0.0 0.00 0.00 0.00 85 1020.0
20260904235542 80 201 0.0 0.0 0.00 0.00 0.00 85 1019.8
20260904235042 80 282 0.0 0.0 0.00 0.00 0.00 85 1019.7
20260904234542 80 269 0.0 0.0 0.00 0.00 0.00 85 1019.8
20260904234038 80 254 0.0 0.0 0.00 0.00 0.00 85 1019.6
20260904233533 80 305 0.0 1.0 0.00 0.00 0.00 85 1019.7
20260904233029 80 239 0.0 0.0 0.00 0.00 0.00 85 1019.7
20260904232525 80 234 0.0 0.0 0.00 0.00 0.00 85 1019.6
20260904232022 80 185 1.0 1.0 0.00 0.00 0.00 84 1019.5
20260904231518 80 225 0.0 1.0 0.00 0.00 0.00 84 1019.8
20260904231012 80 173 1.0 2.0 0.00 0.00 0.00 84 1019.6
20260904230511 80 129 2.0 3.0 0.00 0.00 0.00 83 1019.7
20260904230007 80 122 1.0 3.0 0.00 0.00 0.00 83 1019.6
20260904225504 80 99 3.0 4.0 0.00 0.00 0.00 82 1019.5
20260904225004 80 78 2.0 2.0 0.00 0.00 0.00 81 1019.3
20260904224459 80 88 0.0 0.0 0.00 0.00 0.00 80 1019.5
20260904223959 81 249 0.0 0.0 0.00 0.00 0.00 80 1019.5
20260904223458 81 217 0.0 0.0 0.00 0.00 0.00 80 1019.3
20260904222954 82 217 0.0 2.0 0.00 0.00 0.00 79 1019.5
20260904222449 82 155 2.0 3.0 0.00 0.00 0.00 78 1019.4
20260904221944 82 182 2.0 2.0 0.00 0.00 0.00 77 1019.5
20260904221438 82 92 2.0 2.0 0.00 0.00 0.00 77 1019.4
20260904220934 83 84 4.0 6.0 0.00 0.00 0.00 77 1019.4
20260904220433 83 96 3.0 6.0 0.00 0.00 0.00 76 1019.5
20260904215929 83 167 2.0 6.0 0.00 0.00 0.00 76 1019.4
20260904215424 83 90 3.0 4.0 0.00 0.00 0.00 76 1019.4
20260904214920 83 116 4.0 8.0 0.00 0.00 0.00 75 1019.5
20260904214415 83 81 6.0 9.0 0.00 0.00 0.00 75 1019.5
20260904213915 83 85 5.0 6.0 0.00 0.00 0.00 75 1019.3
20260904213409 83 125 4.0 9.0 0.00 0.00 0.00 74 1019.4
20260904212905 84 227 4.0 8.0 0.00 0.00 0.00 74 1019.5
20260904212404 84 109 8.0 10.0 0.00 0.00 0.00 73 1019.3
20260904211900 84 198 4.0 8.0 0.00 0.00 0.00 73 1019.2
20260904211355 84 89 6.0 8.0 0.00 0.00 0.00 71 1019.2
20260904210849 84 99 8.0 9.0 0.00 0.00 0.00 71 1019.3
20260904210349 84 93 6.0 10.0 0.00 0.00 0.00 72 1019.1
20260904205845 84 112 8.0 11.0 0.00 0.00 0.00 71 1019.3
20260904205341 85 82 8.0 10.0 0.00 0.00 0.00 70 1019.1
20260904204838 85 104 6.0 10.0 0.00 0.00 0.00 71 1019.0
20260904204333 85 143 5.0 8.0 0.00 0.00 0.00 69 1019.2
20260904203829 85 111 9.0 13.0 0.00 0.00 0.00 69 1019.1
20260904203325 85 111 10.0 11.0 0.00 0.00 0.00 70 1019.1
20260904202821 86 156 5.0 11.0 0.00 0.00 0.00 70 1019.0
20260904202317 85 116 10.0 13.0 0.00 0.00 0.00 65 1019.0
20260904201813 86 92 11.0 13.0 0.00 0.00 0.00 68 1018.9
20260904201313 86 137 4.0 14.0 0.00 0.00 0.00 70 1018.7
20260904200808 86 88 10.0 15.0 0.00 0.00 0.00 65 1018.8
20260904200307 86 124 10.0 17.0 0.00 0.00 0.00 67 1019.1
20260904195807 86 95 11.0 15.0 0.00 0.00 0.00 66 1018.8
20260904195306 87 139 14.0 16.0 0.00 0.00 0.00 63 1018.8
20260904194801 87 126 10.0 14.0 0.00 0.00 0.00 62 1019.0
20260904194259 87 93 13.0 17.0 0.00 0.00 0.00 64 1019.0
20260904193755 87 134 12.0 14.0 0.00 0.00 0.00 68 1018.9
20260904193250 87 107 13.0 18.0 0.00 0.00 0.00 65 1019.0
20260904192746 86 111 12.0 15.0 0.00 0.00 0.00 69 1018.9
20260904192241 87 148 12.0 14.0 0.00 0.00 0.00 70 1019.0
20260904191738 86 106 11.0 14.0 0.00 0.00 0.00 66 1018.9
20260904191234 86 73 10.0 14.0 0.00 0.00 0.00 71 1019.0
20260904190730 85 78 10.0 14.0 0.00 0.00 0.00 73 1019.1
20260904190225 84 95 9.0 14.0 0.00 0.00 0.00 75 1019.2
20260904185722 84 126 11.0 17.0 0.00 0.00 0.00 75 1019.4
20260904185222 84 115 16.0 21.0 0.00 0.00 0.00 75 1019.4
20260904184721 84 134 9.0 13.0 0.00 0.00 0.00 76 1019.3
20260904184217 84 141 9.0 13.0 0.00 0.00 0.00 76 1019.5
20260904183712 85 119 11.0 16.0 0.00 0.00 0.00 75 1019.5
20260904183207 85 127 11.0 14.0 0.00 0.00 0.00 75 1019.4
20260904182702 85 115 10.0 16.0 0.00 0.00 0.00 74 1019.4
20260904182157 85 111 9.0 14.0 0.00 0.00 0.00 75 1019.3
20260904181653 86 119 15.0 18.0 0.00 0.00 0.00 72 1019.7
20260904181152 86 160 9.0 17.0 0.00 0.00 0.00 69 1019.7
20260904180648 86 81 10.0 15.0 0.00 0.00 0.00 70 1019.6
20260904180143 86 217 6.0 16.0 0.00 0.00 0.00 71 1019.7
20260904175642 87 167 7.0 14.0 0.00 0.00 0.00 69 1020.0
20260904175140 87 104 10.0 13.0 0.00 0.00 0.00 67 1020.0
20260904174635 88 81 15.0 19.0 0.00 0.00 0.00 64 1020.1
20260904174132 89 190 9.0 16.0 0.00 0.00 0.00 63 1020.1
20260904173627 89 152 13.0 17.0 0.00 0.00 0.00 63 1020.3
20260904173122 88 168 11.0 18.0 0.00 0.00 0.00 65 1020.1
20260904172619 89 109 15.0 18.0 0.00 0.00 0.00 65 1020.2
20260904172117 90 115 14.0 16.0 0.00 0.00 0.00 64 1020.2
20260904171613 91 109 11.0 17.0 0.00 0.00 0.00 61 1020.2
20260904171108 91 72 12.0 16.0 0.00 0.00 0.00 59 1020.4
20260904170604 90 21 14.0 18.0 0.00 0.00 0.00 58 1020.5
20260904170100 89 123 10.0 17.0 0.00 0.00 0.00 64 1020.6
20260904165559 89 138 6.0 19.0 0.00 0.00 0.00 63 1020.7
20260904165058 90 126 11.0 16.0 0.00 0.00 0.00 62 1020.5
20260904164553 90 121 9.0 18.0 0.00 0.00 0.00 62 1020.4
20260904164049 91 154 13.0 17.0 0.00 0.00 0.00 59 1020.5
20260904163549 91 167 11.0 17.0 0.00 0.00 0.00 61 1020.6
20260904163044 89 145 9.0 18.0 0.00 0.00 0.00 63 1020.6
20260904162544 89 185 11.0 22.0 0.00 0.00 0.00 62 1020.7
20260904162040 90 104 12.0 17.0 0.00 0.00 0.00 61 1020.8
20260904161534 89 90 14.0 16.0 0.00 0.00 0.00 67 1020.8
20260904161030 90 120 13.0 18.0 0.00 0.00 0.00 64 1021.0
20260904160525 90 135 10.0 15.0 0.00 0.00 0.00 66 1021.1
20260904160021 90 113 9.0 16.0 0.00 0.00 0.00 64 1020.9
20260904155515 89 69 9.0 18.0 0.00 0.00 0.00 64 1021.3
20260904155014 90 129 14.0 18.0 0.00 0.00 0.00 63 1021.1
20260904154508 90 150 10.0 18.0 0.00 0.00 0.00 66 1021.3
20260904154003 88 92 12.0 15.0 0.00 0.00 0.00 65 1021.3
20260904153458 89 169 11.0 16.0 0.00 0.00 0.00 68 1021.3
20260904152955 89 92 13.0 17.0 0.00 0.00 0.00 65 1021.4
20260904152450 89 108 11.0 17.0 0.00 0.00 0.00 64 1021.3
20260904151949 89 127 9.0 15.0 0.00 0.00 0.00 64 1021.5
20260904151444 88 83 9.0 15.0 0.00 0.00 0.00 63 1021.4
20260904150938 88 103 11.0 18.0 0.00 0.00 0.00 68 1021.3
20260904150433 89 138 12.0 15.0 0.00 0.00 0.00 67 1021.3
20260904145931 88 157 13.0 18.0 0.00 0.00 0.00 68 1021.4
20260904145428 89 145 10.0 16.0 0.00 0.00 0.00 65 1021.6
20260904144923 88 131 9.0 15.0 0.00 0.00 0.00 67 1021.4
20260904144419 88 121 13.0 17.0 0.00 0.00 0.00 67 1021.4
20260904143914 88 105 12.0 16.0 0.00 0.00 0.00 66 1021.6
20260904143411 87 103 12.0 21.0 0.00 0.00 0.00 68 1021.7
20260904142908 86 109 15.0 17.0 0.00 0.00 0.00 69 1021.4